Meteo Giornale » Osservazioni meteo Italia » Perugia

ore: 12:50 - Osservazioni Meteo Perugia
Lat. 43° 5' N Lon. 12° 30' E Alt. 208 metri s.l.m.

sereno Europe/Rome

24 °C

Sereno

Temp. 24 Ore

16 °C

25 °C

Est/Nord-Est

13 Km/h

Dew point 14 °C

Umidità 53 %

Visibilità  10 Km

Il sole sorge alle ore 07:26

Il sole tramonta alle ore 18:23

Data e Ora Cielo e Fenomeni T °C DP °C Um. % Pres. hPa Vis. km Vento km/h
Oggi h: 12:50 sereno Sereno 24 14 53 1014 10 E/NE 13
Oggi h: 11:50 sereno Sereno 23 14 56 1014 10 N/NE 18.5
Oggi h: 10:50 sereno Sereno 21 14 64 1015 10 E 11.1
Oggi h: 09:50 poco_nuvoloso Poco Nuvoloso 19 14 72 1015 10 N 16.7
Oggi h: 08:50 poco_nuvoloso Poco Nuvoloso 17 14 82 1015 10 N/NO 11.1
Oggi h: 07:50 poco_nuvoloso Poco Nuvoloso 16 13 82 1014 10 N/NO 16.7
Oggi h: 06:50 sereno Sereno 16 14 87 1014 10 N/NO 16.7
Oggi h: 05:50 sereno Sereno 16 14 87 1014 10 N/NO 14.8
Oggi h: 04:50 sereno Sereno 16 14 87 1015 10 N 16.7
Oggi h: 03:50 sereno Sereno 16 14 87 1015 10 N 14.8
Oggi h: 02:50 sereno Sereno 16 14 87 1015 10 N 14.8
Oggi h: 01:50 sereno Sereno 16 14 87 1016 10 N 14.8
Oggi h: 00:50 sereno Sereno 17 14 82 1016 10 N 14.8
Ieri h: 23:50 sereno Sereno 17 14 82 1016 10 N 14.8
Ieri h: 22:50 sereno Sereno 18 14 77 1016 10 N 16.7
Ieri h: 21:50 sereno Sereno 19 15 77 1016 10 N 16.7
Ieri h: 20:50 poco_nuvoloso Poco Nuvoloso 19 15 77 1016 10 N 20.3
Ieri h: 19:50 poco_nuvoloso Poco Nuvoloso 19 15 77 1015 10 N 20.3
Ieri h: 18:50 poco_nuvoloso Poco Nuvoloso 20 15 72 1015 10 N/NE 20.3
Ieri h: 16:50 poco_nuvoloso Poco Nuvoloso 25 14 50 1015 10 N/NE 18.5
Ieri h: 14:50 poco_nuvoloso Poco Nuvoloso 25 13 47 1015 10 E/NE 7.4